Regional Weather Roundup
Issued by NWS

Home | Current Version | Previous Version | Graphics & Text | Print | Product List | Glossary On
Versions: 1 2 3 4 5 6 7 8 9 10 11 12 13 14 15 16 17 18 19 20 21 22 23 24 25 26 27 28 29 30 31 32 33 34 35 36 37 38 39 40 41 42 43 44 45 46 47 48 49 50
000
ASUS43 KFSD 231502
RWRSD

WEATHER ROUNDUP FOR SOUTH DAKOTA
NATIONAL WEATHER SERVICE SIOUX FALLS SD
1000 AM CDT TUE AUG 23 2016

NOTE: "FAIR" INDICATES FEW OR NO CLOUDS BELOW 12,000 FEET WITH NO
SIGNIFICANT WEATHER AND/OR OBSTRUCTIONS TO VISIBILITY.


SDZ001>005-009-010-012>017-231600-
NORTHWEST AND NORTH CENTRAL SOUTH DAKOTA

CITY           SKY/WX    TMP DP  RH WIND       PRES   REMARKS
BUFFALO          N/A     69  33  26 NW35G44   29.77R
MOBRIDGE       PTSUNNY   76  62  62 S7        29.63R
$$

SDZ012>016-024>037-041>051-057-063-072>074-231600-
SOUTHWEST AND SOUTH CENTRAL SOUTH DAKOTA

CITY           SKY/WX    TMP DP  RH WIND       PRES   REMARKS
RAPID CTY ARPT SUNNY     72  35  25 NW33G45   29.83R
PIERRE         SUNNY     79  62  56 S17G24    29.66F
CUSTER         SUNNY     71  33  24 N12       29.96R
ELLSWORTH AFB  SUNNY     71  35  27 NW35G48   29.81R
PHILIP         PTSUNNY   69  45  41 NW17G23   29.74R
PINE RIDGE     SUNNY     72  42  34 W12       29.85R
WINNER         FAIR      80  64  58 S17       29.73S
$$

SDZ004>011-016>023-039-040-231600-
NORTHEAST SOUTH DAKOTA

CITY           SKY/WX    TMP DP  RH WIND       PRES   REMARKS
ABERDEEN       SUNNY     75  61  61 S20G30    29.68S
WATERTOWN      SUNNY     74  63  68 S15G24    29.79S
BROOKINGS      MOSUNNY   72  64  76 S15       29.83F
$$

SDZ017-020-022-023-036>040-048>070-231600-
SOUTHEAST SOUTH DAKOTA

CITY           SKY/WX    TMP DP  RH WIND       PRES   REMARKS
SIOUX FALLS    PTSUNNY   73  65  75 S18G24    29.86S
HURON          SUNNY     75  62  64 S17       29.74F
CHAMBERLAIN    SUNNY     81  64  55 S15       29.73F
MITCHELL       CLOUDY    76  63  64 S20G28    29.78F
YANKTON        PTSUNNY   70  63  78 SE16      29.84S
$$

ABBREVIATIONS USED IN REMARKS
   TC - TEMPERATURE IN CELSIUS
  WCI - WIND CHILL INDEX
   HX - HEAT INDEX
  VSB - VISIBILITY





USA.gov is the U.S. government's official web portal to all federal, state and local government web resources and services.